Location: Ottawa
(45.4170°N, 75.7000°W)
Time: 05:38:19
(UTC-04:00)

Daily predictions for brighter satellites

Satellite Brightness Start Highest point End
(mag) Time Altitude Azimuth Time Altitude Azimuth Time Altitude Azimuth
Lacrosse 5 3.9 00:00:39 10° WNW 00:02:40 18° W 00:02:40 18° W
CZ-2C R/B 2.9 00:01:22 10° N 00:06:35 64° WNW 00:06:35 64° WNW
Cosmos 2369 Rocket 4.0 00:03:34 10° NW 00:07:32 20° W 00:07:34 20° W
CZ-4C R/B 4.3 00:06:31 10° W 00:11:10 26° NNW 00:16:25 10° NNE
H-2A R/B 3.4 00:14:36 39° NNE 00:14:36 39° NNE 00:17:40 10° N
Tsikada Rocket 4.0 00:14:23 10° N 00:20:26 75° ENE 00:20:26 75° ENE
COSMOS 2406 4.1 00:22:46 40° ENE 00:22:46 40° ENE 00:26:41 10° NE
USA 234 3.1 00:20:54 76° ESE 00:21:28 85° NE 00:28:02 10° NW
ATLAS 5 CENTAUR R/B 4.1 00:18:17 10° WNW 00:22:00 22° W 00:22:00 22° W
SeaSat 1 3.2 00:35:48 48° NNE 00:35:48 48° NNE 00:39:50 10° NNW
Mayak 0.5 00:32:39 10° NNE 00:34:50 30° NNE 00:34:50 30° NNE
Cosmos 1816 Rocket 4.5 00:33:32 10° N 00:39:26 80° NW 00:39:26 80° NW
ALOS 2 4.1 00:44:02 33° NNW 00:44:02 33° NNW 00:46:33 10° NNW
CZ-4B R/B 4.3 00:41:17 10° NNE 00:44:34 44° NNE 00:44:34 44° NNE
Lacrosse 4 Rocket 3.5 00:42:50 10° N 00:46:10 25° NE 00:46:10 25° NE
Cosmos 2233 Rocket 4.0 01:00:04 77° N 01:00:04 77° N 01:05:45 10° N
Cosmos 2369 4.2 01:01:03 10° NNW 01:06:21 53° NE 01:06:21 53° NE
Meteor 1-12 Rocket 4.5 01:04:19 10° N 01:09:14 67° N 01:09:14 67° N
USA 267 4.2 01:23:33 10° NE 01:29:40 44° NNW 01:35:30 11° W
Meteor 1-13 Rocket 4.5 01:35:44 63° NE 01:35:44 63° NE 01:40:47 10° NNE
ADEOS Rocket 3.3 01:30:43 10° N 01:37:20 59° WNW 01:37:36 58° W
Resurs 1-4 Rocket 4.4 01:41:13 10° ENE 01:43:37 13° E 01:44:22 13° E
Cosmos 1607 4.0 01:46:10 76° E 01:46:10 76° E 01:52:24 10° NE
BREEZE-M R/B 4.3 01:44:09 45° W 01:46:13 74° NNW 01:52:04 10° ENE
Cosmos 1072 Rocket 4.5 01:50:15 77° WNW 01:50:15 77° WNW 01:56:41 10° N
Cosmos 1980 Rocket 2.9 01:46:55 10° NNW 01:52:22 47° ENE 01:53:21 43° E
Cosmos 1697 Rocket 2.8 01:47:17 10° NNW 01:52:32 72° NNE 01:52:32 72° NNE
Meteor 2-4 Rocket 3.8 01:55:42 67° NNE 01:55:42 67° NNE 02:00:20 10° NNE
Exosat Rocket 4.3 01:49:09 10° NNW 01:55:12 78° ENE 01:56:54 56° SE
Cosmos 2278 4.1 01:51:35 10° NNW 01:56:02 55° NW 01:56:02 55° NW
Cosmos 371 Rocket 4.0 02:00:22 52° NNE 02:00:22 52° NNE 02:04:03 10° NNE
Cosmos 332 Rocket 4.5 02:01:29 51° NNE 02:01:29 51° NNE 02:05:07 10° NNE
Cosmos 1656 4.3 01:56:18 10° NNW 02:00:35 48° WNW 02:00:35 48° WNW
ATLAS 3B R/B 4.4 02:01:00 19° ESE 02:02:01 20° ESE 02:06:44 10° ENE
Meteor 1-23 Rocket 4.4 02:05:26 66° E 02:05:26 66° E 02:10:55 10° NNE
Cosmos 2082 Rocket 2.2 02:09:34 75° ENE 02:09:34 75° ENE 02:14:51 10° NNE
SL-16 R/B 4.1 02:05:50 10° N 02:10:34 26° NE 02:15:16 10° ESE
H-2A R/B 4.5 02:07:28 10° NE 02:10:29 23° E 02:10:29 23° E
Mayak 1.5 02:10:38 10° NW 02:11:28 11° NW 02:11:28 11° NW
Lacrosse 5 rocket 2.7 02:14:51 38° NNE 02:14:51 38° NNE 02:17:37 10° NE
Cosmos 2322 Rocket 3.9 02:18:23 10° N 02:23:20 30° NE 02:28:12 10° ESE
Cosmos 304 Rocket 4.5 02:24:36 48° E 02:24:36 48° E 02:28:41 10° NNE
Lacrosse 4 Rocket 3.7 02:21:10 10° NW 02:22:28 18° NW 02:22:28 18° NW
Cosmos 2034 Rocket 4.1 02:26:42 60° W 02:26:57 60° WNW 02:33:08 10° N
Cosmos 1092 Rocket 3.8 02:25:03 10° N 02:31:21 89° WSW 02:32:05 72° S
Cosmos 1833 Rocket 2.9 02:35:53 58° WNW 02:36:06 59° WNW 02:41:42 10° NNE
MOS 1 Rocket 3.9 02:33:40 10° N 02:37:48 48° NW 02:37:48 48° NW
Cosmos 1356 Rocket 4.3 02:44:47 42° ENE 02:44:47 42° ENE 02:48:09 10° NNE
CZ-4B R/B 4.0 02:47:19 16° NW 02:47:19 16° NW 02:48:12 10° NNW
Iridium 4 Rocket 3.3 02:48:27 72° NNE 02:48:27 72° NNE 02:52:45 10° N
UNK 4.0 02:47:58 61° E 02:48:15 63° ENE 02:52:49 10° N
Okean 2 4.2 02:50:52 47° NNW 02:50:52 47° NNW 02:53:57 10° N
Cosmos 1606 Rocket 3.9 02:50:31 10° N 02:54:49 60° E 02:54:50 60° E
Cosmos 2058 Rocket 4.3 02:52:38 10° N 02:56:47 37° ENE 02:58:16 29° ESE
Okean 1-7 Rocket 3.7 02:58:23 71° E 02:58:23 71° E 03:02:53 10° NNE
SJ 16-02 3.9 02:55:10 10° N 02:58:29 20° ENE 03:01:46 10° ESE
Cosmos 1025 Rocket 3.4 02:59:22 56° NNW 02:59:22 56° NNW 03:02:58 10° N
CBERS-1 3.9 02:56:34 10° NNE 03:01:43 81° ESE 03:02:18 69° SSE
CZ-2D R/B 2.4 02:56:46 10° NNE 03:02:06 61° ESE 03:03:15 49° SSE
COSMOS 2487 3.9 03:03:47 34° N 03:03:47 34° N 03:06:02 10° NNE
Cosmos 44 3.4 02:57:20 10° NW 03:02:35 88° ENE 03:04:20 44° SE
Cosmos 1627 Rocket 4.4 02:56:18 10° NNW 03:02:39 76° W 03:04:05 55° SSW
PSLV R/B 4.3 03:02:29 56° E 03:02:42 57° ENE 03:06:43 10° N
Cosmos 1340 Rocket 4.4 03:05:30 25° NW 03:05:30 25° NW 03:07:55 10° N
Cosmos 1898 Rocket 3.3 02:59:17 10° NNW 03:04:30 74° WSW 03:04:42 73° SW
Cosmos 1937 Rocket 3.4 03:03:14 10° NNW 03:08:27 88° ENE 03:09:38 55° SSE
Cosmos 1892 Rocket 3.9 03:11:49 54° SE 03:12:20 58° E 03:16:40 10° NNE
SL-16 R/B 2.4 03:11:16 45° S 03:13:18 76° WSW 03:19:37 10° NNW
Cosmos 1805 4.2 03:10:30 10° N 03:14:16 45° ENE 03:15:03 39° ESE
USA 238 DEB 3.9 03:12:04 42° S 03:14:19 62° ESE 03:21:12 10° NE
USA 238 3.9 03:12:10 42° S 03:14:26 62° ESE 03:21:17 10° NE
Cosmos 858 Rocket 4.3 03:10:05 10° NNW 03:15:17 73° WSW 03:15:54 64° SSW
IRS-1C 4.1 03:10:34 10° NNE 03:15:56 80° ESE 03:17:14 53° S
Cosmos 2208 Rocket 4.1 03:16:00 55° W 03:16:42 60° WNW 03:21:53 10° NNE
Cosmos 990 Rocket 3.8 03:11:47 10° NNW 03:16:58 80° WSW 03:18:02 57° S
SL-08 R/B 3.3 03:18:15 63° WSW 03:18:24 64° WSW 03:23:17 10° NNW
Cosmos 1544 4.1 03:16:06 10° NNW 03:18:34 38° NNW 03:18:34 38° NNW
Cosmos 468 Rocket 4.0 03:20:22 58° WSW 03:21:17 71° WNW 03:26:37 10° NNE
Cosmos 1634 Rocket 4.2 03:22:05 45° WSW 03:23:33 54° WNW 03:29:42 10° N
Resurs 1-4 Rocket 2.0 03:18:51 10° NNE 03:24:08 86° WNW 03:25:27 53° SSW
Cosmos 1570 Rocket 4.5 03:24:17 42° W 03:25:10 46° WNW 03:30:18 10° N
Cosmos 1066 Rocket 4.2 03:26:28 50° WSW 03:27:28 58° WNW 03:32:47 10° N
Cosmos 1766 3.1 03:23:44 10° N 03:27:26 78° NW 03:27:26 78° NW
IRS P6 4.5 03:24:21 10° NNE 03:29:37 82° WNW 03:31:05 49° SSW
Cosmos 2180 Rocket 4.5 03:28:28 37° S 03:31:17 89° E 03:37:44 10° N
ARIANE 5 R/B 2.7 03:26:13 10° NNE 03:31:28 71° ESE 03:33:27 38° S
Cosmos 2279 Rocket 3.9 03:29:32 42° SSW 03:31:48 76° W 03:38:06 10° N
AQUA 3.9 03:28:10 10° N 03:32:52 58° WNW 03:33:36 51° WSW
Cosmos 2360 Rocket 3.3 03:28:26 10° NNW 03:33:50 44° ENE 03:39:10 10° SE
Cosmos 1814 Rocket 3.9 03:34:01 50° SSW 03:35:25 87° WNW 03:40:39 10° NNE
Cosmos 1980 Rocket 3.3 03:31:23 10° NW 03:35:04 27° W 03:35:04 27° W
Cosmos 2026 Rocket 4.4 03:31:06 10° NNW 03:37:07 46° W 03:38:44 38° SW
Cosmos 1953 3.8 03:36:00 10° N 03:39:49 37° ENE 03:43:34 10° SE
Spot 4 Rocket 4.0 03:36:04 10° NNE 03:41:16 88° ESE 03:43:15 39° SSW
H-2A R/B 3.3 03:42:36 10° N 03:46:34 37° WNW 03:47:06 35° W
Cosmos 44 Rocket 3.4 03:43:51 10° NW 03:48:54 58° WSW 03:53:12 14° SSE
NOSS 3-2 (C) 4.1 03:48:15 24° S 03:51:35 47° ESE 03:57:47 10° NE
ATLAS 3B R/B 2.7 03:48:14 32° SW 03:51:54 88° ESE 03:58:50 10° NE
SAR-Lupe-2 3.9 03:52:51 47° W 03:52:51 47° W 03:56:00 10° NNW
Lacrosse 5 rocket 3.5 03:50:30 11° WNW 03:53:23 20° NNW 03:56:26 10° NNE
Cosmos 2082 Rocket 4.0 03:51:24 15° WNW 03:53:57 20° NW 03:58:06 10° N
SL-16 R/B 2.2 03:49:29 10° NNW 03:55:04 59° WSW 03:59:31 16° S
Cosmos 2150 Rocket 4.2 03:50:04 10° NNW 03:55:23 52° WSW 03:57:54 29° SSW
Cosmos 841 Rocket 3.4 03:54:06 37° SSW 03:56:11 78° WNW 04:01:26 10° NNE
deb Kosmos-1763 4.2 03:55:54 51° W 03:56:23 56° WNW 04:00:06 10° NNE
Cosmos 540 Rocket 3.8 03:53:58 27° S 03:56:45 63° ESE 04:01:52 10° NNE
ATLAS CENTAUR R/B 2.0 03:53:03 10° NNW 03:57:25 64° NE 04:02:03 10° SE
Cosmos 1378 4.3 03:57:01 18° SSE 03:59:22 40° E 04:02:56 10° NNE
Cosmos 1726 Rocket 4.4 03:58:50 10° NNW 04:02:37 31° W 04:02:41 31° W
NOSS 3-2 (A) 3.5 04:02:17 28° SSW 04:05:36 78° SE 04:12:13 10° NE
IRS-1D 4.0 04:00:48 10° N 04:05:46 46° WNW 04:07:55 30° WSW
COSMOS 2428 4.4 04:01:06 10° NNW 04:06:20 35° NE 04:11:30 10° ESE
DNEPR-1 R/B 3.5 04:05:15 36° SSW 04:06:57 83° ESE 04:11:39 10° NE
Cosmos 2322 Rocket 2.4 04:02:11 10° NW 04:07:36 49° WSW 04:12:13 14° S
Meteor 1-21 4.3 04:05:20 29° SSW 04:08:13 63° WNW 04:13:47 10° N
CENTAUR R/B 4.1 04:03:50 10° SSE 04:08:48 28° ESE 04:14:20 10° NE
Cosmos 1758 3.2 04:05:25 10° NNW 04:09:24 75° W 04:11:41 24° S
Meteor 2-11 Rocket 4.4 04:07:22 18° S 04:12:02 88° W 04:18:14 10° N
Cosmos 2228 3.8 04:09:14 10° NNW 04:13:00 31° W 04:13:29 30° WSW
Cosmos 2266 Rocket 3.9 04:07:29 10° NNW 04:13:33 69° W 04:19:34 11° S
Cosmos 1763 Rocket 4.3 04:16:30 25° WSW 04:18:54 38° WNW 04:23:52 10° N
UNKNOWN OBJECT B 2.7 04:15:20 10° N 04:19:08 66° WNW 04:20:49 30° SSW
BREEZE-M R/B 2.9 04:19:04 31° W 04:20:38 77° NNW 04:26:29 10° ENE
Cosmos 1470 2.7 04:17:09 10° N 04:21:09 89° W 04:25:06 10° S
Cosmos 1812 Rocket 3.5 04:18:35 10° N 04:23:05 90° NNE 04:27:32 10° S
Timation 2 Rocket 4.4 04:21:51 23° WSW 04:25:19 45° NW 04:31:03 10° NNE
Cosmos 1833 4.3 04:22:41 18° SSW 04:27:07 81° ESE 04:32:55 10° NNE
Cosmos 1602 Rocket 3.5 04:26:35 21° SSW 04:29:22 67° W 04:33:41 10° N
Cosmos 1707 2.9 04:26:46 13° S 04:30:06 72° E 04:34:00 10° NNE
Aureole 2 Rocket 2.6 04:26:38 10° NNW 04:30:19 54° WSW 04:33:44 10° S
Cosmos 292 Rocket 4.2 04:27:54 24° SW 04:30:30 47° WNW 04:35:09 10° N
Cosmos 2058 Rocket 4.4 04:31:09 10° NW 04:34:32 22° W 04:35:31 20° WSW
ADEOS 3.8 04:30:12 10° N 04:35:18 56° WNW 04:39:10 17° SW
SJ 16-02 1.6 04:33:05 10° NNW 04:37:19 46° WSW 04:41:32 10° S
Cosmos 1626 Rocket 3.9 04:37:26 20° SW 04:40:06 46° WNW 04:44:18 10° N
ADEOS II 2.1 04:36:06 10° N 04:41:21 78° WNW 04:46:33 10° SSW
ERBS 2.2 04:39:43 24° SW 04:41:36 88° NW 04:45:01 10° NE
CZ-2D R/B 3.6 04:37:45 10° NNW 04:41:42 21° WNW 04:44:35 14° W
Helios 1A Rocket 3.9 04:38:21 10° N 04:42:04 31° WNW 04:44:18 19° WSW
Cosmos 1238 Rocket 4.2 04:42:02 10° S 04:48:42 83° E 04:55:17 10° N
PSLV R/B 3.9 04:49:20 21° SW 04:50:43 33° S 04:53:27 10° ESE
USA 267 4.5 04:47:45 10° E 04:53:50 43° NNE 04:59:55 10° NW
Cosmos 2322 3.7 04:51:28 10° NNW 04:57:07 61° WSW 05:02:44 10° S
SL-16 R/B 4.2 04:56:21 11° W 04:57:56 12° W 05:00:20 10° WNW
Cosmos 1125 Rocket 4.0 04:54:23 10° NW 04:59:19 40° WSW 05:04:12 10° S
Cosmos 2237 4.2 04:54:04 10° NNW 04:59:42 60° WSW 05:05:18 10° S
CZ-4B R/B 3.4 04:58:25 10° NNE 05:02:33 61° E 05:06:25 10° S
Resurs 1-4 Rocket 4.0 05:00:34 10° NNW 05:03:11 14° NW 05:05:47 10° W
Cosmos-2242 3.5 05:04:09 10° N 05:08:25 66° E 05:12:38 10° SSE
PSLV R/B 4.0 05:06:01 10° NNE 05:09:51 68° ESE 05:13:34 10° S
ARIANE 5 R/B 4.2 05:06:32 10° NNW 05:10:00 18° WNW 05:13:28 10° W
USA 161 2.8 05:09:39 10° SSE 05:12:28 44° ENE 05:15:10 10° N
BREEZE-M DEB (TANK) 1.7 05:12:32 12° SW 05:14:26 68° SSE 05:17:18 10° ENE
Cosmos 1953 3.9 05:13:06 10° NW 05:15:57 18° W 05:18:45 10° SW
Cosmos 2360 Rocket 2.9 05:12:45 10° NW 05:17:38 31° WSW 05:22:29 10° SSW
Cosmos 1400 Rocket 2.9 05:14:53 10° S 05:18:49 80° E 05:22:52 10° NNE
IDEFIX/ARIANE 42P 4.4 05:25:07 10° NNE 05:29:55 35° E 05:34:40 10° SSE
Cosmos 1825 Rocket 4.0 05:26:31 10° SSW 05:30:36 42° WNW 05:34:44 10° N
